Flag for Mexico Weather past 2 weeks in Mexicali, Baja California, Mexico

Now
80 °F

Sunny.


Feels Like: 78 °F
Forecast: 57 / 91 °F
Wind: No wind

Location: Imperial County Airport

Current Time: Apr 18, 2015 at 10:24:46 AM

Latest Report: Apr 18, 2015 at 9:53 AM


Visibility: 10 mi

Pressure: 29.93 "Hg

Humidity: 16%

Dew point: 30 °F

Location of MexicaliLocation

Historic Weather in Mexicali — Graph

°F

Mexicali temperature yesterday

Maximum temperature yesterday: 86 °F (at 3:53 PM)
Minimum temperature yesterday: 51 °F (at 5:53 AM)
Average temperature yesterday: 71 °F

Past Weeks' High & Low Weather Summary

 TemperatureHumidityPressure
High94 °F (Apr 14, 3:53 PM)78% (Apr 12, 5:53 AM)30.08 "Hg (Apr 12, 5:53 AM)
Low46 °F (Apr 16, 5:53 AM)6% (Apr 3, 5:53 PM)29.67 "Hg (Apr 5, 4:53 PM)
Average70 °F30%29.89 "Hg
* Reported Apr 3 8:53 AM — Apr 18 8:53 AM, Mexicali, Weather by CustomWeather, © 2015

Note: Actual official high and low records may vary slightly from our data, if they occured in-between our weather recording intervals... More about our weather records

Advertising

Mexicali weather history for previous 24 hours

 ConditionsComfort  
Time TempWeatherWind HumidityBarometerVisibility
8:53 AM
Sat, Apr 18
74 °FSunny.No wind23%29.93 "Hg10 mi
7:53 AM67 °FSunny.3 mph21%29.93 "Hg10 mi
6:53 AM61 °FClear.No wind25%29.92 "Hg10 mi
5:53 AM55 °FClear.6 mph40%29.90 "Hg10 mi
4:53 AM58 °FClear.5 mph31%29.90 "Hg10 mi
3:53 AM59 °FClear.3 mph35%29.89 "Hg10 mi
2:53 AM60 °FClear.6 mph32%29.90 "Hg10 mi
1:53 AM60 °FClear.8 mph36%29.91 "Hg10 mi
12:53 AM61 °FClear.8 mph38%29.93 "Hg10 mi
11:53 PM
Fri, Apr 17
68 °FClear.7 mph22%29.93 "Hg10 mi
10:53 PM66 °FClear.5 mph32%29.93 "Hg10 mi
9:53 PM73 °FClear.3 mph17%29.92 "Hg10 mi
8:53 PM76 °FClear.6 mph14%29.90 "Hg10 mi
7:53 PM77 °FSunny.3 mph15%29.88 "Hg10 mi
6:53 PM84 °FSunny.3 mph9%29.87 "Hg10 mi
5:53 PM86 °FSunny.3 mph9%29.87 "Hg10 mi
4:53 PM85 °FSunny.6 mph10%29.88 "Hg10 mi
3:53 PM86 °FSunny.No wind8%29.89 "Hg10 mi
2:53 PM85 °FSunny.8 mph9%29.93 "Hg10 mi
1:53 PM85 °FSunny.7 mph7%29.96 "Hg10 mi
12:53 PM83 °FSunny.8 mph11%29.98 "Hg10 mi
11:53 AM79 °FSunny.5 mph17%30.01 "Hg10 mi
10:53 AM78 °FSunny.7 mph16%30.02 "Hg10 mi
Weather by CustomWeather, © 2015

See weather overviewHow to use our weather pages